Regional Weather Roundup
Issued by NWS Upton, NY

Current Version | Previous Version | Text Only | Print | Product List | Glossary Off
Versions: 1 2 3 4 5 6 7 8 9 10 11 12 13 14 15 16 17 18 19 20 21 22 23 24 25 26 27 28 29 30 31 32 33 34 35 36 37 38 39 40 41 42 43 44 45 46 47 48
000 ASUS41 KOKX 201205 RWROKX REGIONAL WEATHER ROUNDUP NATIONAL WEATHER SERVICE NEW YORK NY 800 AM EDT SAT SEP 20 2014 NOTE: "FAIR" INDICATES FEW OR NO CLOUDS BELOW 12,000 FEET WITH NO SIGNIFICANT WEATHER AND/OR OBSTRUCTIONS TO VISIBILITY. NYZ071-072-176-178-NJZ106-104-201300- NEW YORK CITY METRO AREA CITY SKY/WX TMP DP RH WIND PRES REMARKS CENTRAL PARK CLOUDY 62 53 72 CALM 30.32F LAGUARDIA APRT PTSUNNY 61 53 75 SE6 30.29F KENNEDY INTL PTSUNNY 59 53 80 E5 30.31F NEWARK/LIBERTY PTSUNNY 63 53 70 CALM 30.30F BRNX BOT. GARD N/A 61 54 77 SE6 30.33S TETERBORO CLOUDY 59 51 75 NW3 30.29F $$ NYZ177-179-078>081-201300- LONG ISLAND NEW YORK CITY SKY/WX TMP DP RH WIND PRES REMARKS FARMINGDALE SUNNY 58 53 84 CALM 30.31F ISLIP PTSUNNY 59 54 83 CALM 30.30S SHIRLEY SUNNY 56 54 93 CALM 30.33S WESTHAMPTON SUNNY 61 55 81 SE8 30.33F MONTAUK POINT N/A 61 52 72 CALM 30.35F $$ NYZ052-065-067-201300- HUDSON VALLEY CITY SKY/WX TMP DP RH WIND PRES REMARKS WHITE PLAINS SUNNY 57 52 83 VRB3 30.30F NEWBURGH MOSUNNY 55 52 88 CALM 30.30F MONTGOMERY MOSUNNY 53 49 86 CALM 30.29F POUGHKEEPSIE MOSUNNY 56 51 84 SE3 30.29S ALBANY PTSUNNY 56 47 71 S13 30.24F $$ NJZ001-105-106-008-010-013-015-019>022-104-201300- NEW JERSEY CITY SKY/WX TMP DP RH WIND PRES REMARKS NEWARK/LIBERTY PTSUNNY 63 53 70 CALM 30.30F TETERBORO CLOUDY 59 51 75 NW3 30.29F CALDWELL CLOUDY 56 50 80 CALM 30.32R MORRISTOWN CLOUDY 57 54 88 CALM 30.31F SOMERVILLE CLOUDY 56 53 90 CALM 30.28F LINDEN CLOUDY 65 57 76 CALM 30.32S SUSSEX SUNNY 57 53 86 CALM 30.29F ANDOVER N/A 58 54 86 VRB3 30.30S TRENTON SUNNY 56 52 86 N3 30.29F MILLVILLE SUNNY 57 54 89 N5 30.28S FOG ATLANTIC CITY SUNNY 60 58 92 CALM 30.28S WRIGHTSTOWN SUNNY 56 55 98 N2 30.27F TOMS RIVER SUNNY 52 48 87 CALM 30.29F BELMAR MOSUNNY 63 54 72 SE3 30.29F $$ PAZ047>061-062-071-201300- EASTERN PENNSYLVANIA CITY SKY/WX TMP DP RH WIND PRES REMARKS PHILADELPHIA MOSUNNY 61 57 87 E7 30.28F ALLENTOWN CLOUDY 58 53 84 NE3 30.29S SCRANTON CLOUDY 61 54 77 VRB5 30.25S $$ CTZ002-004>006-009-010-012-RIZ004-006-007-MAZ004-011-015-201300- SOUTHERN NEW ENGLAND IN CT CITY SKY/WX TMP DP RH WIND PRES REMARKS BRADLEY INTL MOSUNNY 50 43 77 CALM 30.31F HARTFORD SUNNY 51 44 77 VRB5 30.32F DANBURY MOSUNNY 49 45 86 CALM 30.33S WTRBRY/OXFORD MOSUNNY 54 46 76 S12 30.32F BRIDGEPORT SUNNY 64 55 72 SE12 30.31F MERIDEN SUNNY 51 45 79 CALM 30.31F NEW HAVEN MOSUNNY 58 50 75 CALM 30.32F CHESTER FAIR 54 48 82 CALM 30.33F GROTON SUNNY 51 48 89 N3 30.33F WILLIMANTIC MOSUNNY 44 41 89 CALM 30.34F IN RI CITY SKY/WX TMP DP RH WIND PRES REMARKS PROVIDENCE MOSUNNY 46 41 82 CALM 30.36F BLOCK ISLAND SUNNY 61 48 63 SE7 30.35S WESTERLY SUNNY 48 43 82 N3 30.35F IN MA CITY SKY/WX TMP DP RH WIND PRES REMARKS BOSTON SUNNY 54 46 74 S13 30.35F WORCESTER MOSUNNY 49 43 80 S10 30.32F WESTFIELD MOSUNNY 48 43 82 CALM 30.31F PROVINCETOWN SUNNY 55 46 71 S8 30.37F NANTUCKET SUNNY 56 47 71 E5 30.38S $$ ANZ330-335-338-340-345-350-353-355-201300- COASTAL MARINE OBSERVATIONS STATION/POSITION TIME SKY/WX TEMP WIND PRES VSBY WAVE AIR SEA DIR/SP/G HT/PER (UTC) (F) (DEG/KT/KT) (MB) (MI) (FT/S) NY HARB ENTRANCE 1200 67 70 140/ 14/ 16 1026.1 3/ 6 4S FIRE IS 1200 69 N/A 3/ 6 20S FIRE ISLAND 1200 67 67 140/ 14/ 14 1026.4 4/ 9 23SW MTP 1200 N/A 3/ 6 HUDSON CANYON 1200 68 72 100/ 12/ 16 1025.9 4/ 8 EXECUTION ROCKS 1200 62 70 110/ 10/ 12 N/A WESTERN LI SOUND 1200 63 120/ 8/ 10 N/A 1/ 4 CENTRAL LI SOUND 1100 63 70 150/ 12/ 14 N/A 1/ 2 EASTERN LI SOUND 1100 63 67 170/ 8/ 12 N/A ROBBINS REEF 1200 64 140/ 9/ 10 1024.6 $$ >>>>>>>>>>>>>>>>>>>>>>>>>>>> KEY <<<<<<<<<<<<<<<<<<<<<<<<<<< > < > SKY/WX - SKY CONDITION/PRESENT WEATHER < > TMP - TEMPERATURE IN FAHRENHEIT < > DP - DEWPOINT IN FAHRENHEIT < > RH - RELATIVE HUMIDITY IN PERCENT < > WIND - DIRECTION AND SPEED IN MPH < > PRES - MEAN SEA LEVEL PRESSURE IN INCHES OF HG < > WCI - WIND CHILL INDEX < > VSB - VISIBILITY IN MILES < > HX - HEAT INDEX < > TC - TEMPERATURE IN CELSIUS < > VRB - VARIABLE WIND DIRECTION < > < >>>>>>>>>>>>>>>>>>>>>>>>>>>> KEY <<<<<<<<<<<<<<<<<<<<<<<<<<<

USA.gov is the U.S. government's official web portal to all federal, state and local government web resources and services.